owner,sensor,date,latitude,longitude,vertical_datum,wind_speed,wind_to_direction,wind_speed_of_gust,qcFlag 
TCOON,ioos:station:TCOON:005:1,2019-07-01T00:00:00Z,27.6346,-97.2370,0.0,6.8,102.0,9.1,'11111222,11111222,11111222' 
TCOON,ioos:station:TCOON:005:1,2019-07-01T00:06:00Z,27.6346,-97.2370,0.0,6.1,102.0,8.5,'11111222,11111222,11111222' 
TCOON,ioos:station:TCOON:005:1,2019-07-01T00:12:00Z,27.6346,-97.2370,0.0,6.0,111.0,8.0,'11111222,11111222,11111222' 
TCOON,ioos:station:TCOON:005:1,2019-07-01T00:18:00Z,27.6346,-97.2370,0.0,6.4,103.0,8.2,'11111222,11111222,11111222' 
TCOON,ioos:station:TCOON:005:1,2019-07-01T00:24:00Z,27.6346,-97.2370,0.0,6.4,103.0,8.2,'11111222,11111222,11111222' 
TCOON,ioos:station:TCOON:005:1,2019-07-01T00:30:00Z,27.6346,-97.2370,0.0,6.1,108.0,9.0,'11111222,11111222,11111222' 
TCOON,ioos:station:TCOON:005:1,2019-07-01T00:36:00Z,27.6346,-97.2370,0.0,5.6,111.0,8.2,'11111222,11111222,11111222' 
TCOON,ioos:station:TCOON:005:1,2019-07-01T00:42:00Z,27.6346,-97.2370,0.0,6.5,113.0,7.9,'11111222,11111222,11111222' 
TCOON,ioos:station:TCOON:005:1,2019-07-01T00:48:00Z,27.6346,-97.2370,0.0,5.9,111.0,7.4,'11111222,11111222,11111222' 
TCOON,ioos:station:TCOON:005:1,2019-07-01T00:54:00Z,27.6346,-97.2370,0.0,6.3,107.0,8.4,'11111222,11111222,11111222' 
TCOON,ioos:station:TCOON:005:1,2019-07-01T01:00:00Z,27.6346,-97.2370,0.0,5.5,109.0,7.8,'11111222,11111222,11111222' 
TCOON,ioos:station:TCOON:005:1,2019-07-01T01:06:00Z,27.6346,-97.2370,0.0,5.7,105.0,7.2,'11111222,11111222,11111222' 
TCOON,ioos:station:TCOON:005:1,2019-07-01T01:12:00Z,27.6346,-97.2370,0.0,5.7,102.0,7.0,'11111222,11111222,11111222' 
TCOON,ioos:station:TCOON:005:1,2019-07-01T01:18:00Z,27.6346,-97.2370,0.0,5.9,111.0,8.0,'11111222,11111222,11111222' 
TCOON,ioos:station:TCOON:005:1,2019-07-01T01:24:00Z,27.6346,-97.2370,0.0,5.9,111.0,8.0,'11111222,11111222,11111222' 
TCOON,ioos:station:TCOON:005:1,2019-07-01T01:30:00Z,27.6346,-97.2370,0.0,4.7,107.0,6.7,'11111222,11111222,11111222' 
TCOON,ioos:station:TCOON:005:1,2019-07-01T01:36:00Z,27.6346,-97.2370,0.0,5.5,104.0,7.5,'11111222,11111222,11111222' 
TCOON,ioos:station:TCOON:005:1,2019-07-01T01:42:00Z,27.6346,-97.2370,0.0,5.3,110.0,6.8,'11111222,11111222,11111222' 
TCOON,ioos:station:TCOON:005:1,2019-07-01T01:48:00Z,27.6346,-97.2370,0.0,6.5,109.0,7.8,'11111222,11111222,11111222' 
TCOON,ioos:station:TCOON:005:1,2019-07-01T01:54:00Z,27.6346,-97.2370,0.0,5.5,112.0,7.9,'11111222,11111222,11111222' 
TCOON,ioos:station:TCOON:005:1,2019-07-01T02:00:00Z,27.6346,-97.2370,0.0,6.2,113.0,7.9,'11111222,11111222,11111222' 
TCOON,ioos:station:TCOON:005:1,2019-07-01T02:06:00Z,27.6346,-97.2370,0.0,5.0,110.0,6.9,'11111222,11111222,11111222' 
TCOON,ioos:station:TCOON:005:1,2019-07-01T02:12:00Z,27.6346,-97.2370,0.0,5.6,115.0,6.6,'11111222,11111222,11111222' 
TCOON,ioos:station:TCOON:005:1,2019-07-01T02:18:00Z,27.6346,-97.2370,0.0,5.5,121.0,7.3,'11111222,11111222,11111222' 
TCOON,ioos:station:TCOON:005:1,2019-07-01T02:24:00Z,27.6346,-97.2370,0.0,5.5,121.0,7.3,'11111222,11111222,11111222' 
TCOON,ioos:station:TCOON:005:1,2019-07-01T02:30:00Z,27.6346,-97.2370,0.0,7.0,119.0,8.6,'11111222,11111222,11111222' 
TCOON,ioos:station:TCOON:005:1,2019-07-01T02:36:00Z,27.6346,-97.2370,0.0,5.5,116.0,7.5,'11111222,11111222,11111222' 
TCOON,ioos:station:TCOON:005:1,2019-07-01T02:42:00Z,27.6346,-97.2370,0.0,6.6,114.0,7.8,'11111222,11111222,11111222' 
TCOON,ioos:station:TCOON:005:1,2019-07-01T02:48:00Z,27.6346,-97.2370,0.0,7.1,117.0,8.6,'11111222,11111222,11111222' 
TCOON,ioos:station:TCOON:005:1,2019-07-01T02:54:00Z,27.6346,-97.2370,0.0,6.6,116.0,8.4,'11111222,11111222,11111222' 
TCOON,ioos:station:TCOON:005:1,2019-07-01T03:00:00Z,27.6346,-97.2370,0.0,6.5,121.0,9.2,'11111222,11111222,11111222' 
TCOON,ioos:station:TCOON:005:1,2019-07-01T03:06:00Z,27.6346,-97.2370,0.0,6.4,119.0,8.7,'11111222,11111222,11111222' 
TCOON,ioos:station:TCOON:005:1,2019-07-01T03:12:00Z,27.6346,-97.2370,0.0,6.6,115.0,8.0,'11111222,11111222,11111222' 
TCOON,ioos:station:TCOON:005:1,2019-07-01T03:18:00Z,27.6346,-97.2370,0.0,7.0,126.0,9.6,'11111222,11111222,11111222' 
TCOON,ioos:station:TCOON:005:1,2019-07-01T03:24:00Z,27.6346,-97.2370,0.0,7.0,126.0,9.6,'11111222,11111222,11111222' 
TCOON,ioos:station:TCOON:005:1,2019-07-01T03:30:00Z,27.6346,-97.2370,0.0,6.1,129.0,8.2,'11111222,11111222,11111222' 
TCOON,ioos:station:TCOON:005:1,2019-07-01T03:36:00Z,27.6346,-97.2370,0.0,6.0,125.0,9.1,'11111222,11111222,11111222' 
TCOON,ioos:station:TCOON:005:1,2019-07-01T03:42:00Z,27.6346,-97.2370,0.0,6.2,128.0,8.2,'11111222,11111222,11111222' 
TCOON,ioos:station:TCOON:005:1,2019-07-01T03:48:00Z,27.6346,-97.2370,0.0,5.9,130.0,7.6,'11111222,11111222,11111222' 
TCOON,ioos:station:TCOON:005:1,2019-07-01T03:54:00Z,27.6346,-97.2370,0.0,5.6,126.0,8.3,'11111222,11111222,11111222' 
TCOON,ioos:station:TCOON:005:1,2019-07-01T04:00:00Z,27.6346,-97.2370,0.0,6.9,126.0,9.9,'11111222,11111222,11111222' 
TCOON,ioos:station:TCOON:005:1,2019-07-01T04:06:00Z,27.6346,-97.2370,0.0,6.6,127.0,9.8,'11111222,11111222,11111222' 
TCOON,ioos:station:TCOON:005:1,2019-07-01T04:12:00Z,27.6346,-97.2370,0.0,6.0,130.0,8.6,'11111222,11111222,11111222' 
TCOON,ioos:station:TCOON:005:1,2019-07-01T04:18:00Z,27.6346,-97.2370,0.0,5.9,126.0,9.1,'11111222,11111222,11111222' 
TCOON,ioos:station:TCOON:005:1,2019-07-01T04:24:00Z,27.6346,-97.2370,0.0,7.3,130.0,10.5,'11111222,11111222,11111222' 
TCOON,ioos:station:TCOON:005:1,2019-07-01T04:30:00Z,27.6346,-97.2370,0.0,7.3,130.0,10.5,'11111222,11111222,11111222' 
TCOON,ioos:station:TCOON:005:1,2019-07-01T04:36:00Z,27.6346,-97.2370,0.0,6.6,130.0,8.7,'11111222,11111222,11111222' 
TCOON,ioos:station:TCOON:005:1,2019-07-01T04:42:00Z,27.6346,-97.2370,0.0,6.0,131.0,8.5,'11111222,11111222,11111222' 
TCOON,ioos:station:TCOON:005:1,2019-07-01T04:48:00Z,27.6346,-97.2370,0.0,5.6,131.0,9.2,'11111222,11111222,11111222' 
TCOON,ioos:station:TCOON:005:1,2019-07-01T04:54:00Z,27.6346,-97.2370,0.0,6.1,135.0,9.6,'11111222,11111222,11111222' 
TCOON,ioos:station:TCOON:005:1,2019-07-01T05:00:00Z,27.6346,-97.2370,0.0,6.8,127.0,8.5,'11111222,11111222,11111222' 
TCOON,ioos:station:TCOON:005:1,2019-07-01T05:06:00Z,27.6346,-97.2370,0.0,6.0,129.0,9.4,'11111222,11111222,11111222' 
TCOON,ioos:station:TCOON:005:1,2019-07-01T05:12:00Z,27.6346,-97.2370,0.0,6.2,135.0,9.6,'11111222,11111222,11111222' 
TCOON,ioos:station:TCOON:005:1,2019-07-01T05:18:00Z,27.6346,-97.2370,0.0,5.7,138.0,9.2,'11111222,11111222,11111222' 
TCOON,ioos:station:TCOON:005:1,2019-07-01T05:24:00Z,27.6346,-97.2370,0.0,5.7,138.0,9.2,'11111222,11111222,11111222' 
TCOON,ioos:station:TCOON:005:1,2019-07-01T05:30:00Z,27.6346,-97.2370,0.0,5.7,140.0,8.6,'11111222,11111222,11111222' 
TCOON,ioos:station:TCOON:005:1,2019-07-01T05:36:00Z,27.6346,-97.2370,0.0,6.9,136.0,9.5,'11111222,11111222,11111222' 
TCOON,ioos:station:TCOON:005:1,2019-07-01T05:42:00Z,27.6346,-97.2370,0.0,6.3,139.0,9.1,'11111222,11111222,11111222' 
TCOON,ioos:station:TCOON:005:1,2019-07-01T05:48:00Z,27.6346,-97.2370,0.0,6.3,138.0,8.3,'11111222,11111222,11111222' 
TCOON,ioos:station:TCOON:005:1,2019-07-01T05:54:00Z,27.6346,-97.2370,0.0,6.6,134.0,8.5,'11111222,11111222,11111222' 
TCOON,ioos:station:TCOON:005:1,2019-07-01T06:00:00Z,27.6346,-97.2370,0.0,6.5,144.0,9.3,'11111222,11111222,11111222' 
TCOON,ioos:station:TCOON:005:1,2019-07-01T06:06:00Z,27.6346,-97.2370,0.0,5.9,145.0,10.2,'11111222,11111222,11111222' 
TCOON,ioos:station:TCOON:005:1,2019-07-01T06:12:00Z,27.6346,-97.2370,0.0,6.9,141.0,8.1,'11111222,11111222,11111222' 
TCOON,ioos:station:TCOON:005:1,2019-07-01T06:18:00Z,27.6346,-97.2370,0.0,6.1,143.0,8.8,'11111222,11111222,11111222' 
TCOON,ioos:station:TCOON:005:1,2019-07-01T06:24:00Z,27.6346,-97.2370,0.0,6.1,143.0,8.8,'11111222,11111222,11111222' 
TCOON,ioos:station:TCOON:005:1,2019-07-01T06:30:00Z,27.6346,-97.2370,0.0,6.1,142.0,8.7,'11111222,11111222,11111222' 
TCOON,ioos:station:TCOON:005:1,2019-07-01T06:36:00Z,27.6346,-97.2370,0.0,5.4,148.0,8.5,'11111222,11111222,11111222' 
TCOON,ioos:station:TCOON:005:1,2019-07-01T06:42:00Z,27.6346,-97.2370,0.0,5.7,139.0,8.7,'11111222,11111222,11111222' 
TCOON,ioos:station:TCOON:005:1,2019-07-01T06:48:00Z,27.6346,-97.2370,0.0,5.6,139.0,7.6,'11111222,11111222,11111222' 
TCOON,ioos:station:TCOON:005:1,2019-07-01T06:54:00Z,27.6346,-97.2370,0.0,6.2,138.0,8.6,'11111222,11111222,11111222' 
TCOON,ioos:station:TCOON:005:1,2019-07-01T07:00:00Z,27.6346,-97.2370,0.0,7.3,143.0,10.1,'11111222,11111222,11111222' 
TCOON,ioos:station:TCOON:005:1,2019-07-01T07:06:00Z,27.6346,-97.2370,0.0,5.6,139.0,8.4,'11111222,11111222,11111222' 
TCOON,ioos:station:TCOON:005:1,2019-07-01T07:12:00Z,27.6346,-97.2370,0.0,6.1,145.0,9.2,'11111222,11111222,11111222' 
TCOON,ioos:station:TCOON:005:1,2019-07-01T07:18:00Z,27.6346,-97.2370,0.0,7.0,137.0,9.9,'11111222,11111222,11111222' 
TCOON,ioos:station:TCOON:005:1,2019-07-01T07:24:00Z,27.6346,-97.2370,0.0,5.5,142.0,9.2,'11111222,11111222,11111222' 
TCOON,ioos:station:TCOON:005:1,2019-07-01T07:30:00Z,27.6346,-97.2370,0.0,5.5,142.0,9.2,'11111222,11111222,11111222' 
TCOON,ioos:station:TCOON:005:1,2019-07-01T07:36:00Z,27.6346,-97.2370,0.0,5.8,148.0,7.9,'11111222,11111222,11111222' 
TCOON,ioos:station:TCOON:005:1,2019-07-01T07:42:00Z,27.6346,-97.2370,0.0,6.5,142.0,8.7,'11111222,11111222,11111222' 
TCOON,ioos:station:TCOON:005:1,2019-07-01T07:48:00Z,27.6346,-97.2370,0.0,6.4,144.0,8.2,'11111222,11111222,11111222' 
TCOON,ioos:station:TCOON:005:1,2019-07-01T07:54:00Z,27.6346,-97.2370,0.0,6.0,145.0,9.4,'11111222,11111222,11111222' 
TCOON,ioos:station:TCOON:005:1,2019-07-01T08:00:00Z,27.6346,-97.2370,0.0,6.3,142.0,8.6,'11111222,11111222,11111222' 
TCOON,ioos:station:TCOON:005:1,2019-07-01T08:06:00Z,27.6346,-97.2370,0.0,5.2,149.0,8.5,'11111222,11111222,11111222' 
TCOON,ioos:station:TCOON:005:1,2019-07-01T08:12:00Z,27.6346,-97.2370,0.0,5.6,145.0,7.0,'11111222,11111222,11111222' 
TCOON,ioos:station:TCOON:005:1,2019-07-01T08:18:00Z,27.6346,-97.2370,0.0,5.5,149.0,8.5,'11111222,11111222,11111222' 
TCOON,ioos:station:TCOON:005:1,2019-07-01T08:24:00Z,27.6346,-97.2370,0.0,4.9,151.0,8.2,'11111222,11111222,11111222' 
TCOON,ioos:station:TCOON:005:1,2019-07-01T08:30:00Z,27.6346,-97.2370,0.0,4.9,151.0,8.2,'11111222,11111222,11111222' 
TCOON,ioos:station:TCOON:005:1,2019-07-01T08:36:00Z,27.6346,-97.2370,0.0,5.6,151.0,7.1,'11111222,11111222,11111222' 
TCOON,ioos:station:TCOON:005:1,2019-07-01T08:42:00Z,27.6346,-97.2370,0.0,4.5,148.0,6.3,'11111222,11111222,11111222' 
TCOON,ioos:station:TCOON:005:1,2019-07-01T08:48:00Z,27.6346,-97.2370,0.0,4.2,148.0,5.8,'11111222,11111222,11111222' 
TCOON,ioos:station:TCOON:005:1,2019-07-01T08:54:00Z,27.6346,-97.2370,0.0,4.2,144.0,5.5,'11111222,11111222,11111222' 
TCOON,ioos:station:TCOON:005:1,2019-07-01T09:00:00Z,27.6346,-97.2370,0.0,5.2,147.0,7.3,'11111222,11111222,11111222' 
TCOON,ioos:station:TCOON:005:1,2019-07-01T09:06:00Z,27.6346,-97.2370,0.0,3.9,142.0,6.4,'11111222,11111222,11111222' 
TCOON,ioos:station:TCOON:005:1,2019-07-01T09:12:00Z,27.6346,-97.2370,0.0,3.8,145.0,6.3,'11111222,11111222,11111222' 
TCOON,ioos:station:TCOON:005:1,2019-07-01T09:18:00Z,27.6346,-97.2370,0.0,5.0,149.0,6.9,'11111222,11111222,11111222' 
TCOON,ioos:station:TCOON:005:1,2019-07-01T09:24:00Z,27.6346,-97.2370,0.0,5.0,149.0,6.9,'11111222,11111222,11111222' 
TCOON,ioos:station:TCOON:005:1,2019-07-01T09:30:00Z,27.6346,-97.2370,0.0,5.0,144.0,7.3,'11111222,11111222,11111222' 
TCOON,ioos:station:TCOON:005:1,2019-07-01T09:36:00Z,27.6346,-97.2370,0.0,5.0,145.0,7.7,'11111222,11111222,11111222' 
TCOON,ioos:station:TCOON:005:1,2019-07-01T09:42:00Z,27.6346,-97.2370,0.0,5.2,141.0,7.2,'11111222,11111222,11111222' 
TCOON,ioos:station:TCOON:005:1,2019-07-01T09:48:00Z,27.6346,-97.2370,0.0,4.8,146.0,7.0,'11111222,11111222,11111222' 
TCOON,ioos:station:TCOON:005:1,2019-07-01T09:54:00Z,27.6346,-97.2370,0.0,4.7,150.0,7.6,'11111222,11111222,11111222' 
TCOON,ioos:station:TCOON:005:1,2019-07-01T10:00:00Z,27.6346,-97.2370,0.0,4.6,150.0,5.6,'11111222,11111222,11111222' 
TCOON,ioos:station:TCOON:005:1,2019-07-01T10:12:00Z,27.6346,-97.2370,0.0,4.6,143.0,6.7,'11111222,11111222,11111222' 
TCOON,ioos:station:TCOON:005:1,2019-07-01T10:18:00Z,27.6346,-97.2370,0.0,4.4,147.0,6.7,'11111222,11111222,11111222' 
TCOON,ioos:station:TCOON:005:1,2019-07-01T10:24:00Z,27.6346,-97.2370,0.0,4.4,148.0,5.8,'11111222,11111222,11111222' 
TCOON,ioos:station:TCOON:005:1,2019-07-01T10:30:00Z,27.6346,-97.2370,0.0,4.4,148.0,5.8,'11111222,11111222,11111222' 
TCOON,ioos:station:TCOON:005:1,2019-07-01T10:36:00Z,27.6346,-97.2370,0.0,4.4,146.0,6.5,'11111222,11111222,11111222' 
TCOON,ioos:station:TCOON:005:1,2019-07-01T10:48:00Z,27.6346,-97.2370,0.0,4.0,152.0,5.8,'11111222,11111222,11111222' 
TCOON,ioos:station:TCOON:005:1,2019-07-01T10:54:00Z,27.6346,-97.2370,0.0,4.3,148.0,5.7,'11111222,11111222,11111222' 
TCOON,ioos:station:TCOON:005:1,2019-07-01T11:00:00Z,27.6346,-97.2370,0.0,3.6,151.0,6.0,'11111222,11111222,11111222' 
TCOON,ioos:station:TCOON:005:1,2019-07-01T11:06:00Z,27.6346,-97.2370,0.0,4.4,148.0,6.0,'11111222,11111222,11111222' 
TCOON,ioos:station:TCOON:005:1,2019-07-01T11:12:00Z,27.6346,-97.2370,0.0,5.0,146.0,6.3,'11111222,11111222,11111222' 
TCOON,ioos:station:TCOON:005:1,2019-07-01T11:18:00Z,27.6346,-97.2370,0.0,3.9,144.0,6.8,'11111222,11111222,11111222' 
TCOON,ioos:station:TCOON:005:1,2019-07-01T11:24:00Z,27.6346,-97.2370,0.0,4.3,139.0,5.3,'11111222,11111222,11111222' 
TCOON,ioos:station:TCOON:005:1,2019-07-01T11:30:00Z,27.6346,-97.2370,0.0,4.3,139.0,5.3,'11111222,11111222,11111222' 
TCOON,ioos:station:TCOON:005:1,2019-07-01T11:36:00Z,27.6346,-97.2370,0.0,4.3,137.0,5.8,'11111222,11111222,11111222' 
TCOON,ioos:station:TCOON:005:1,2019-07-01T11:42:00Z,27.6346,-97.2370,0.0,4.2,139.0,6.7,'11111222,11111222,11111222' 
TCOON,ioos:station:TCOON:005:1,2019-07-01T11:48:00Z,27.6346,-97.2370,0.0,4.1,136.0,5.8,'11111222,11111222,11111222' 
TCOON,ioos:station:TCOON:005:1,2019-07-01T11:54:00Z,27.6346,-97.2370,0.0,4.2,142.0,6.0,'11111222,11111222,11111222' 
TCOON,ioos:station:TCOON:005:1,2019-07-01T12:00:00Z,27.6346,-97.2370,0.0,4.1,140.0,5.8,'11111222,11111222,11111222' 
TCOON,ioos:station:TCOON:005:1,2019-07-01T12:06:00Z,27.6346,-97.2370,0.0,3.9,143.0,5.5,'11111222,11111222,11111222' 
TCOON,ioos:station:TCOON:005:1,2019-07-01T12:12:00Z,27.6346,-97.2370,0.0,4.4,143.0,5.6,'11111222,11111222,11111222' 
TCOON,ioos:station:TCOON:005:1,2019-07-01T12:18:00Z,27.6346,-97.2370,0.0,3.4,139.0,6.3,'11111222,11111222,11111222' 
TCOON,ioos:station:TCOON:005:1,2019-07-01T12:24:00Z,27.6346,-97.2370,0.0,4.3,137.0,5.7,'11111222,11111222,11111222' 
TCOON,ioos:station:TCOON:005:1,2019-07-01T12:30:00Z,27.6346,-97.2370,0.0,4.3,137.0,5.7,'11111222,11111222,11111222' 
TCOON,ioos:station:TCOON:005:1,2019-07-01T12:36:00Z,27.6346,-97.2370,0.0,3.2,137.0,5.5,'11111222,11111222,11111222' 
TCOON,ioos:station:TCOON:005:1,2019-07-01T12:42:00Z,27.6346,-97.2370,0.0,3.7,133.0,4.9,'11111222,11111222,11111222' 
TCOON,ioos:station:TCOON:005:1,2019-07-01T12:48:00Z,27.6346,-97.2370,0.0,3.6,138.0,5.1,'11111222,11111222,11111222' 
TCOON,ioos:station:TCOON:005:1,2019-07-01T12:54:00Z,27.6346,-97.2370,0.0,4.4,134.0,5.6,'11111222,11111222,11111222' 
TCOON,ioos:station:TCOON:005:1,2019-07-01T13:00:00Z,27.6346,-97.2370,0.0,4.3,141.0,6.6,'11111222,11111222,11111222' 
TCOON,ioos:station:TCOON:005:1,2019-07-01T13:06:00Z,27.6346,-97.2370,0.0,4.5,139.0,5.6,'11111222,11111222,11111222' 
TCOON,ioos:station:TCOON:005:1,2019-07-01T13:12:00Z,27.6346,-97.2370,0.0,3.8,146.0,6.0,'11111222,11111222,11111222' 
TCOON,ioos:station:TCOON:005:1,2019-07-01T13:18:00Z,27.6346,-97.2370,0.0,3.5,135.0,5.0,'11111222,11111222,11111222' 
TCOON,ioos:station:TCOON:005:1,2019-07-01T13:24:00Z,27.6346,-97.2370,0.0,3.9,140.0,5.3,'11111222,11111222,11111222' 
TCOON,ioos:station:TCOON:005:1,2019-07-01T13:30:00Z,27.6346,-97.2370,0.0,3.9,140.0,5.3,'11111222,11111222,11111222' 
TCOON,ioos:station:TCOON:005:1,2019-07-01T13:36:00Z,27.6346,-97.2370,0.0,4.2,129.0,5.3,'11111222,11111222,11111222' 
TCOON,ioos:station:TCOON:005:1,2019-07-01T13:42:00Z,27.6346,-97.2370,0.0,3.5,146.0,6.6,'11111222,11111222,11111222' 
TCOON,ioos:station:TCOON:005:1,2019-07-01T13:48:00Z,27.6346,-97.2370,0.0,3.6,138.0,5.6,'11111222,11111222,11111222' 
TCOON,ioos:station:TCOON:005:1,2019-07-01T13:54:00Z,27.6346,-97.2370,0.0,4.2,141.0,6.0,'11111222,11111222,11111222' 
TCOON,ioos:station:TCOON:005:1,2019-07-01T14:00:00Z,27.6346,-97.2370,0.0,4.3,131.0,6.5,'11111222,11111222,11111222' 
TCOON,ioos:station:TCOON:005:1,2019-07-01T14:06:00Z,27.6346,-97.2370,0.0,4.4,153.0,6.6,'11111222,11111222,11111222' 
TCOON,ioos:station:TCOON:005:1,2019-07-01T14:12:00Z,27.6346,-97.2370,0.0,3.3,144.0,6.1,'11111222,11111222,11111222' 
TCOON,ioos:station:TCOON:005:1,2019-07-01T14:18:00Z,27.6346,-97.2370,0.0,4.2,164.0,5.7,'11111222,11111222,11111222' 
TCOON,ioos:station:TCOON:005:1,2019-07-01T14:24:00Z,27.6346,-97.2370,0.0,4.6,139.0,6.3,'11111222,11111222,11111222' 
TCOON,ioos:station:TCOON:005:1,2019-07-01T14:30:00Z,27.6346,-97.2370,0.0,4.9,132.0,6.3,'11111222,11111222,11111222' 
TCOON,ioos:station:TCOON:005:1,2019-07-01T14:36:00Z,27.6346,-97.2370,0.0,4.7,149.0,6.5,'11111222,11111222,11111222' 
TCOON,ioos:station:TCOON:005:1,2019-07-01T14:48:00Z,27.6346,-97.2370,0.0,4.6,143.0,6.1,'11111222,11111222,11111222' 
TCOON,ioos:station:TCOON:005:1,2019-07-01T14:54:00Z,27.6346,-97.2370,0.0,4.9,140.0,6.7,'11111222,11111222,11111222' 
TCOON,ioos:station:TCOON:005:1,2019-07-01T15:00:00Z,27.6346,-97.2370,0.0,4.3,150.0,6.3,'11111222,11111222,11111222' 
TCOON,ioos:station:TCOON:005:1,2019-07-01T15:06:00Z,27.6346,-97.2370,0.0,4.1,153.0,6.2,'11111222,11111222,11111222' 
TCOON,ioos:station:TCOON:005:1,2019-07-01T15:12:00Z,27.6346,-97.2370,0.0,4.5,146.0,6.2,'11111222,11111222,11111222' 
TCOON,ioos:station:TCOON:005:1,2019-07-01T15:18:00Z,27.6346,-97.2370,0.0,4.7,152.0,6.6,'11111222,11111222,11111222' 
TCOON,ioos:station:TCOON:005:1,2019-07-01T15:24:00Z,27.6346,-97.2370,0.0,5.1,137.0,6.3,'11111222,11111222,11111222' 
TCOON,ioos:station:TCOON:005:1,2019-07-01T15:30:00Z,27.6346,-97.2370,0.0,3.9,147.0,6.6,'11111222,11111222,11111222' 
TCOON,ioos:station:TCOON:005:1,2019-07-01T15:36:00Z,27.6346,-97.2370,0.0,4.7,140.0,6.5,'11111222,11111222,11111222' 
TCOON,ioos:station:TCOON:005:1,2019-07-01T15:42:00Z,27.6346,-97.2370,0.0,5.2,132.0,7.2,'11111222,11111222,11111222' 
TCOON,ioos:station:TCOON:005:1,2019-07-01T15:48:00Z,27.6346,-97.2370,0.0,5.2,132.0,7.2,'11111222,11111222,11111222' 
TCOON,ioos:station:TCOON:005:1,2019-07-01T15:54:00Z,27.6346,-97.2370,0.0,3.6,142.0,6.7,'11111222,11111222,11111222' 
TCOON,ioos:station:TCOON:005:1,2019-07-01T16:00:00Z,27.6346,-97.2370,0.0,4.8,126.0,5.8,'11111222,11111222,11111222' 
TCOON,ioos:station:TCOON:005:1,2019-07-01T16:06:00Z,27.6346,-97.2370,0.0,3.6,161.0,6.0,'11111222,11111222,11111222' 
TCOON,ioos:station:TCOON:005:1,2019-07-01T16:18:00Z,27.6346,-97.2370,0.0,5.1,131.0,6.5,'11111222,11111222,11111222' 
TCOON,ioos:station:TCOON:005:1,2019-07-01T16:24:00Z,27.6346,-97.2370,0.0,4.7,119.0,6.5,'11111222,11111222,11111222' 
TCOON,ioos:station:TCOON:005:1,2019-07-01T16:30:00Z,27.6346,-97.2370,0.0,4.7,119.0,6.5,'11111222,11111222,11111222' 
TCOON,ioos:station:TCOON:005:1,2019-07-01T16:36:00Z,27.6346,-97.2370,0.0,5.0,141.0,7.4,'11111222,11111222,11111222' 
TCOON,ioos:station:TCOON:005:1,2019-07-01T16:42:00Z,27.6346,-97.2370,0.0,4.1,163.0,5.5,'11111222,11111222,11111222' 
TCOON,ioos:station:TCOON:005:1,2019-07-01T16:48:00Z,27.6346,-97.2370,0.0,5.8,111.0,8.3,'11111222,11111222,11111222' 
TCOON,ioos:station:TCOON:005:1,2019-07-01T16:54:00Z,27.6346,-97.2370,0.0,5.9,118.0,8.1,'11111222,11111222,11111222' 
TCOON,ioos:station:TCOON:005:1,2019-07-01T17:00:00Z,27.6346,-97.2370,0.0,5.4,131.0,7.1,'11111222,11111222,11111222' 
TCOON,ioos:station:TCOON:005:1,2019-07-01T17:06:00Z,27.6346,-97.2370,0.0,6.0,114.0,7.3,'11111222,11111222,11111222' 
TCOON,ioos:station:TCOON:005:1,2019-07-01T17:12:00Z,27.6346,-97.2370,0.0,5.1,114.0,7.5,'11111222,11111222,11111222' 
TCOON,ioos:station:TCOON:005:1,2019-07-01T17:18:00Z,27.6346,-97.2370,0.0,5.1,121.0,7.3,'11111222,11111222,11111222' 
TCOON,ioos:station:TCOON:005:1,2019-07-01T17:24:00Z,27.6346,-97.2370,0.0,4.9,122.0,7.0,'11111222,11111222,11111222' 
TCOON,ioos:station:TCOON:005:1,2019-07-01T17:30:00Z,27.6346,-97.2370,0.0,4.9,122.0,7.0,'11111222,11111222,11111222' 
TCOON,ioos:station:TCOON:005:1,2019-07-01T17:36:00Z,27.6346,-97.2370,0.0,3.9,127.0,6.5,'11111222,11111222,11111222' 
TCOON,ioos:station:TCOON:005:1,2019-07-01T17:42:00Z,27.6346,-97.2370,0.0,4.0,134.0,6.8,'11111222,11111222,11111222' 
TCOON,ioos:station:TCOON:005:1,2019-07-01T17:48:00Z,27.6346,-97.2370,0.0,5.6,113.0,8.2,'11111222,11111222,11111222' 
TCOON,ioos:station:TCOON:005:1,2019-07-01T17:54:00Z,27.6346,-97.2370,0.0,7.1,117.0,8.4,'11111222,11111222,11111222' 
TCOON,ioos:station:TCOON:005:1,2019-07-01T18:00:00Z,27.6346,-97.2370,0.0,5.8,119.0,7.3,'11111222,11111222,11111222' 
TCOON,ioos:station:TCOON:005:1,2019-07-01T18:06:00Z,27.6346,-97.2370,0.0,4.4,132.0,7.0,'11111222,11111222,11111222' 
TCOON,ioos:station:TCOON:005:1,2019-07-01T18:12:00Z,27.6346,-97.2370,0.0,5.7,125.0,7.9,'11111222,11111222,11111222' 
TCOON,ioos:station:TCOON:005:1,2019-07-01T18:18:00Z,27.6346,-97.2370,0.0,5.1,113.0,7.3,'11111222,11111222,11111222' 
TCOON,ioos:station:TCOON:005:1,2019-07-01T18:24:00Z,27.6346,-97.2370,0.0,5.7,127.0,8.2,'11111222,11111222,11111222' 
TCOON,ioos:station:TCOON:005:1,2019-07-01T18:30:00Z,27.6346,-97.2370,0.0,5.7,127.0,8.2,'11111222,11111222,11111222' 
TCOON,ioos:station:TCOON:005:1,2019-07-01T18:36:00Z,27.6346,-97.2370,0.0,5.4,123.0,7.4,'11111222,11111222,11111222' 
TCOON,ioos:station:TCOON:005:1,2019-07-01T18:42:00Z,27.6346,-97.2370,0.0,6.1,113.0,7.9,'11111222,11111222,11111222' 
TCOON,ioos:station:TCOON:005:1,2019-07-01T18:48:00Z,27.6346,-97.2370,0.0,5.5,122.0,7.0,'11111222,11111222,11111222' 
TCOON,ioos:station:TCOON:005:1,2019-07-01T18:54:00Z,27.6346,-97.2370,0.0,6.0,127.0,7.8,'11111222,11111222,11111222' 
TCOON,ioos:station:TCOON:005:1,2019-07-01T19:00:00Z,27.6346,-97.2370,0.0,6.7,122.0,7.9,'11111222,11111222,11111222' 
TCOON,ioos:station:TCOON:005:1,2019-07-01T19:06:00Z,27.6346,-97.2370,0.0,5.8,107.0,7.5,'11111222,11111222,11111222' 
TCOON,ioos:station:TCOON:005:1,2019-07-01T19:12:00Z,27.6346,-97.2370,0.0,5.9,117.0,8.0,'11111222,11111222,11111222' 
TCOON,ioos:station:TCOON:005:1,2019-07-01T19:18:00Z,27.6346,-97.2370,0.0,6.4,123.0,8.8,'11111222,11111222,11111222' 
TCOON,ioos:station:TCOON:005:1,2019-07-01T19:24:00Z,27.6346,-97.2370,0.0,6.0,115.0,8.2,'11111222,11111222,11111222' 
TCOON,ioos:station:TCOON:005:1,2019-07-01T19:30:00Z,27.6346,-97.2370,0.0,6.0,115.0,8.2,'11111222,11111222,11111222' 
TCOON,ioos:station:TCOON:005:1,2019-07-01T19:36:00Z,27.6346,-97.2370,0.0,5.1,118.0,7.9,'11111222,11111222,11111222' 
TCOON,ioos:station:TCOON:005:1,2019-07-01T19:42:00Z,27.6346,-97.2370,0.0,6.5,117.0,8.9,'11111222,11111222,11111222' 
TCOON,ioos:station:TCOON:005:1,2019-07-01T19:48:00Z,27.6346,-97.2370,0.0,5.8,121.0,8.0,'11111222,11111222,11111222' 
TCOON,ioos:station:TCOON:005:1,2019-07-01T19:54:00Z,27.6346,-97.2370,0.0,5.7,112.0,7.9,'11111222,11111222,11111222' 
TCOON,ioos:station:TCOON:005:1,2019-07-01T20:00:00Z,27.6346,-97.2370,0.0,6.6,115.0,8.8,'11111222,11111222,11111222' 
TCOON,ioos:station:TCOON:005:1,2019-07-01T20:06:00Z,27.6346,-97.2370,0.0,5.4,120.0,7.6,'11111222,11111222,11111222' 
TCOON,ioos:station:TCOON:005:1,2019-07-01T20:12:00Z,27.6346,-97.2370,0.0,5.4,114.0,7.9,'11111222,11111222,11111222' 
TCOON,ioos:station:TCOON:005:1,2019-07-01T20:18:00Z,27.6346,-97.2370,0.0,6.6,109.0,7.8,'11111222,11111222,11111222' 
TCOON,ioos:station:TCOON:005:1,2019-07-01T20:24:00Z,27.6346,-97.2370,0.0,6.6,102.0,7.9,'11111222,11111222,11111222' 
TCOON,ioos:station:TCOON:005:1,2019-07-01T20:30:00Z,27.6346,-97.2370,0.0,6.6,102.0,7.9,'11111222,11111222,11111222' 
TCOON,ioos:station:TCOON:005:1,2019-07-01T20:36:00Z,27.6346,-97.2370,0.0,6.2,102.0,7.4,'11111222,11111222,11111222' 
TCOON,ioos:station:TCOON:005:1,2019-07-01T20:42:00Z,27.6346,-97.2370,0.0,5.7,109.0,7.9,'11111222,11111222,11111222' 